Location: Bonnesvalyn
(49.1218°N, 3.3177°E)
Time: 04:31:38
(UTC+00:00)

Cosmos 1980 - Visible Passes

Search period start: 11 November 2024 00:00
Search period end: 21 November 2024 00:00
Orbit: 838 x 846 km, 71.0° (Epoch: 10 November)

Date Brightness Start Highest point End Pass type
(mag) Time Alt. Az. Time Alt. Az. Time Alt. Az.
11 Nov 5.5 17:37:04 10° NW 17:42:06 34° WSW 17:47:07 10° S visible
12 Nov 5.5 17:22:05 10° NW 17:27:11 36° WSW 17:32:15 10° S visible
13 Nov 5.4 17:07:07 10° NW 17:12:16 37° WSW 17:17:23 10° S visible
14 Nov 5.5 06:18:37 10° S 06:23:48 38° ESE 06:28:59 10° NE visible
14 Nov 5.4 16:52:08 10° NW 16:57:21 39° WSW 17:02:31 10° S visible
15 Nov 5.6 06:03:45 10° S 06:08:52 36° ESE 06:14:00 10° NE visible
15 Nov 5.3 16:37:10 10° NW 16:42:25 41° WSW 16:47:39 10° S visible
16 Nov 5.6 05:48:54 10° S 05:53:57 35° ESE 05:59:01 10° NE visible
17 Nov 5.6 05:34:02 10° SSE 05:39:01 33° ESE 05:44:02 10° NE visible
18 Nov 5.7 05:19:10 10° SSE 05:24:06 32° ESE 05:29:03 10° NE visible
19 Nov 5.7 05:04:19 10° SSE 05:09:11 30° ESE 05:14:03 10° NE visible
20 Nov 5.7 04:49:28 10° SSE 04:54:16 29° ESE 04:59:03 10° NE visible
